Theta_e
337 336 328 327 325 325 316 317 303 307 305 300 297 300 299 307 308 305 306 307 307 314 314 317 319 316 315 313 312 315 318 313 317 310 311 326 338 338 342 343 343 343 343 343 345 347 348 347 346 343 343 343 343 342 342 340 340 340 341 342 349 348 347 347 347 348 348 346 346 346 346 344 343 343 344 343 341 340 340 342 343 339 338 337 339 339 339 340 339 341 341 341 341 341 341 342 342
328 328 327 326 324 321 313 314 306 301 303 297 300 302 300 305 306 304 303 308 309 311 316 320 320 318 316 316 317 314 318 322 325 324 328 334 338 338 342 343 341 341 341 343 345 345 347 348 346 345 344 343 343 342 341 340 340 340 342 340 343 347 346 346 346 347 346 347 346 345 343 343 343 343 343 343 341 340 338 338 342 341 340 339 339 339 339 338 338 338 338 338 340 340 339 340 342
323 323 323 325 319 317 313 313 302 301 298 294 296 302 305 302 303 306 308 310 311 315 318 320 321 317 313 314 313 312 311 326 329 329 327 334 330 333 341 341 342 341 342 343 344 344 345 346 345 345 344 343 342 342 341 341 340 341 341 340 342 346 345 345 347 346 346 346 347 346 346 345 343 342 342 341 339 338 339 340 340 341 341 341 339 340 340 340 338 337 337 338 337 337 337 339 340
332 325 321 319 313 315 310 308 305 300 298 297 296 301 302 303 304 308 311 312 312 315 318 315 315 320 313 310 311 317 320 323 329 328 326 329 332 337 341 341 342 340 342 343 345 345 345 345 344 344 344 343 343 342 341 340 340 341 342 341 342 346 345 345 346 346 346 346 346 344 343 341 340 340 340 340 339 339 338 338 342 342 342 341 338 338 338 338 338 338 338 338 338 338 339 339 340
325 324 323 320 312 309 309 307 305 302 297 298 297 301 303 305 306 308 311 311 311 313 315 315 314 319 321 316 317 315 320 327 330 332 330 334 338 338 340 341 340 339 341 341 343 344 346 343 345 345 344 343 343 342 341 341 341 340 341 340 343 345 345 344 345 346 346 346 345 342 340 340 341 340 340 338 337 337 337 338 339 340 340 340 340 339 338 338 338 338 338 339 338 339 338 339 339
320 322 326 319 309 316 309 302 299 300 301 303 299 301 304 307 306 310 310 311 312 313 314 314 313 314 314 316 319 320 326 318 329 331 333 334 337 338 341 342 339 338 338 341 344 346 347 342 346 346 344 343 343 343 342 341 341 341 341 340 341 343 344 344 344 345 345 345 344 341 340 339 339 339 338 338 337 337 336 338 338 339 339 340 341 342 341 340 338 338 339 338 338 339 338 339 338
319 319 317 316 314 314 305 302 300 301 301 303 302 303 305 306 308 310 309 309 311 311 313 314 315 311 312 318 318 329 333 331 330 331 336 336 338 338 341 342 341 338 338 340 345 345 347 341 346 346 344 343 342 342 342 342 341 340 340 339 339 340 340 344 345 345 345 345 344 341 339 339 338 338 337 337 338 339 338 337 339 340 341 340 340 340 341 340 339 339 339 338 339 340 338 338 339
323 316 315 307 308 306 302 302 302 303 301 304 304 305 306 307 309 309 308 307 306 307 311 312 313 311 311 318 316 326 331 334 334 336 338 337 338 339 342 342 340 338 338 342 347 344 346 341 345 346 344 344 343 342 342 342 341 340 339 338 338 338 340 340 340 342 343 343 343 341 340 339 337 337 337 337 337 335 335 337 338 339 342 341 341 341 340 340 340 340 340 340 340 340 338 339 339
318 315 319 312 304 307 302 301 302 303 303 304 304 306 310 308 309 308 306 308 308 309 309 311 313 307 310 310 322 327 329 334 335 336 337 338 337 339 340 342 340 338 339 344 346 347 346 340 345 345 345 344 343 343 342 341 341 340 339 339 338 338 339 339 339 341 343 343 343 343 340 338 336 336 336 336 337 337 337 337 338 338 339 338 340 340 339 339 339 339 339 339 339 339 338 338 339
315 313 306 306 309 300 300 301 299 302 303 305 305 305 306 308 309 309 307 305 306 307 312 314 313 307 308 311 317 326 329 334 335 335 336 337 337 338 338 340 343 343 343 345 346 344 345 345 340 344 345 344 343 342 342 341 340 340 339 339 339 339 339 338 338 339 339 341 341 341 340 338 336 335 335 337 336 335 336 338 338 338 339 341 341 340 340 339 338 338 338 338 338 338 338 338 339
308 311 316 305 301 300 299 299 302 301 303 305 305 307 307 308 308 308 308 306 307 307 309 312 307 307 307 313 323 333 334 335 332 332 336 337 337 336 337 339 343 345 342 346 345 345 345 346 342 339 343 343 344 343 342 342 340 339 339 339 339 339 339 339 338 337 337 338 339 339 340 339 337 336 335 335 337 336 337 336 337 338 338 340 340 340 339 339 338 339 338 338 337 337 339 339 339
307 306 310 302 301 301 300 300 301 302 304 304 304 306 308 308 309 307 306 304 305 306 308 309 308 310 307 309 320 331 333 333 334 335 336 337 335 336 337 339 343 344 345 346 347 346 345 347 346 342 335 337 341 343 343 343 342 341 340 340 339 339 340 339 338 338 338 339 340 339 340 339 338 336 336 336 338 337 337 337 337 336 336 339 339 338 338 338 338 337 337 337 336 337 338 339 339
309 312 305 303 302 303 301 300 301 302 302 303 304 306 309 308 307 307 306 306 306 305 307 310 314 310 307 308 325 331 330 333 334 335 337 337 336 336 337 337 341 343 344 346 346 345 346 346 345 344 340 331 333 337 339 340 341 343 344 343 342 341 340 342 343 339 338 340 339 339 339 340 338 335 335 336 339 337 337 336 336 336 336 337 337 336 336 337 337 336 336 336 336 336 337 338 338
309 311 308 302 304 302 300 301 301 299 300 305 307 307 308 307 308 309 308 304 305 304 310 314 311 311 308 311 318 323 330 335 334 336 337 337 337 336 336 338 342 342 345 345 344 345 345 344 345 344 345 344 345 338 333 337 339 341 340 340 341 342 341 341 340 341 342 342 340 339 339 339 339 336 336 337 337 339 339 337 335 335 338 339 338 337 337 337 336 336 335 335 335 335 335 336 337
310 313 308 307 302 301 302 299 300 300 301 305 305 306 306 307 307 307 307 305 306 310 311 315 317 310 306 307 311 320 330 335 335 336 337 337 336 336 336 338 339 342 343 342 343 344 344 345 345 345 343 344 343 342 344 342 334 337 338 338 340 340 339 339 338 336 338 337 336 334 334 334 334 335 336 336 335 336 336 337 338 337 336 335 336 336 336 336 335 335 335 335 334 335 335 335 335
317 311 308 304 300 299 300 302 303 301 301 306 306 307 306 306 307 306 306 306 307 311 311 308 315 311 310 313 323 328 333 334 336 337 336 335 336 335 335 336 337 339 341 342 342 343 343 344 345 344 343 343 343 341 342 343 333 331 335 336 336 336 336 335 333 332 331 330 330 330 330 333 330 332 325 332 332 333 331 332 335 336 334 334 335 335 335 335 335 335 334 334 334 334 335 333 332
317 316 303 303 300 300 301 301 300 298 303 305 306 306 304 303 306 306 306 308 306 306 308 312 311 315 311 319 329 334 334 334 334 335 335 333 334 333 334 335 335 336 339 340 341 342 343 343 343 343 343 342 342 341 341 342 341 330 330 328 330 332 332 331 329 324 323 324 327 326 329 334 335 333 335 332 328 336 324 326 334 335 335 335 336 334 335 334 335 334 334 333 335 332 329 327 328
313 305 304 301 303 300 303 302 303 304 303 304 305 306 305 303 304 306 307 305 307 307 307 311 314 315 321 320 327 334 334 333 334 332 331 331 332 331 331 332 332 332 336 338 341 341 341 342 343 342 342 342 342 341 341 343 343 337 340 340 340 335 329 327 334 338 336 337 327 333 336 334 334 334 333 333 332 334 332 322 327 332 334 333 335 333 334 334 334 333 333 332 332 330 326 333 329
307 306 305 301 304 304 306 305 305 304 303 305 306 307 306 305 305 306 304 304 304 304 306 309 309 314 319 322 330 332 332 332 332 331 330 330 330 329 329 331 332 332 333 335 338 339 341 341 342 340 341 341 342 341 339 340 341 340 341 338 339 332 337 338 338 338 337 337 336 336 333 332 334 333 333 335 334 324 331 323 325 328 331 330 332 333 333 333 332 332 331 330 329 328 330 333 331
309 308 302 304 306 304 305 306 304 305 306 304 305 306 306 306 306 307 304 304 304 303 304 306 306 312 315 323 330 329 331 331 332 331 329 330 331 330 330 330 331 331 333 334 336 339 340 340 341 341 341 341 340 340 340 338 339 340 340 339 337 336 338 336 337 335 337 338 337 335 333 334 332 335 329 328 331 332 329 321 322 324 325 325 326 330 329 330 330 328 327 326 326 328 331 330 330
307 306 304 305 305 304 303 305 304 304 306 305 304 305 304 305 306 306 304 303 302 304 307 306 305 310 314 322 327 329 330 330 330 331 330 330 331 332 331 332 332 332 334 335 336 337 339 339 340 341 342 341 340 338 338 337 338 338 339 338 338 336 336 337 337 336 337 337 336 334 335 334 333 333 330 329 331 331 331 332 331 332 332 332 324 331 330 333 329 331 328 325 330 331 330 330 330
307 303 304 305 305 304 303 303 302 303 303 306 305 302 303 307 305 305 305 301 301 304 307 308 309 309 316 321 327 329 329 329 330 329 330 330 330 330 332 334 334 334 334 333 334 336 338 339 340 341 341 341 340 339 337 336 337 337 337 337 337 337 337 336 337 336 336 336 335 335 335 333 332 332 332 331 332 333 331 331 331 332 332 331 329 330 329 330 329 330 329 329 328 329 329 329 329
302 303 304 305 304 304 303 303 301 302 304 304 303 305 306 304 304 306 305 304 304 307 307 307 308 314 320 322 327 328 329 329 329 330 330 330 331 331 332 333 333 332 333 333 334 336 337 339 340 341 340 340 340 340 338 337 336 337 337 337 337 336 336 335 336 336 335 335 335 335 332 332 331 331 331 332 331 332 330 330 330 331 331 331 329 330 330 329 329 328 328 328 327 327 327 328 328
306 302 304 303 304 303 302 301 300 301 303 304 305 304 304 304 301 304 303 306 305 305 308 306 306 315 320 321 325 326 328 329 329 330 332 331 332 332 333 333 334 334 334 333 334 335 337 338 339 340 340 340 340 339 338 337 337 336 337 336 336 334 334 335 334 337 337 335 334 333 329 332 331 330 331 331 331 330 330 331 330 330 331 330 330 329 329 327 327 327 327 327 327 326 326 327 326
304 302 304 302 303 302 302 301 301 302 302 303 303 303 303 304 303 302 303 306 307 306 308 308 310 315 318 320 321 323 326 328 329 330 332 333 333 334 334 334 334 334 332 333 334 335 337 338 338 339 339 339 339 339 338 338 337 337 337 337 335 333 335 334 335 336 336 335 335 334 332 331 331 331 331 330 331 329 330 331 329 329 329 328 329 327 328 326 325 326 325 326 326 325 325 325 325
305 304 304 303 302 302 302 301 302 302 303 303 302 303 303 302 302 302 305 305 304 306 308 311 311 313 315 318 320 322 324 326 329 330 331 333 333 332 332 332 332 331 332 333 334 336 337 338 338 338 339 339 339 339 338 337 337 336 337 337 337 335 335 335 335 334 334 334 334 334 334 332 331 330 331 330 330 330 330 331 330 329 328 328 327 326 325 325 324 324 325 325 325 325 324 324 324
306 304 304 303 302 302 302 302 302 303 303 302 302 302 302 302 301 300 305 304 304 305 308 310 311 310 313 317 320 322 324 326 328 330 331 332 331 331 331 332 332 332 333 333 334 335 337 337 338 338 339 339 340 338 338 337 337 336 337 337 337 336 335 335 335 334 334 334 334 335 334 333 331 332 331 331 330 330 330 330 329 328 328 328 327 326 326 325 324 324 324 324 323 324 323 324 323
305 304 303 302 302 303 302 303 302 304 301 303 303 302 302 302 301 301 303 303 305 305 307 310 309 311 313 315 319 323 324 326 329 330 329 328 329 330 330 331 332 333 333 333 334 335 336 337 337 338 339 339 339 338 338 338 337 337 337 337 337 337 337 335 334 334 332 334 335 334 334 333 331 332 332 332 331 330 330 329 329 328 328 328 327 326 325 324 323 324 325 325 325 324 323 323 324
303 304 299 300 302 301 302 302 302 304 302 302 303 301 299 300 299 304 302 303 304 305 306 309 308 311 316 317 319 321 323 325 328 328 329 330 331 331 330 332 332 332 334 335 335 335 334 336 336 338 339 339 339 338 338 339 339 338 337 337 337 339 337 336 335 334 334 334 335 334 334 333 333 332 332 332 331 330 330 330 329 329 329 328 327 326 326 325 323 322 323 324 323 322 321 322 324
305 304 302 299 300 299 301 302 302 302 302 301 301 293 298 301 302 303 303 303 304 303 304 306 308 309 311 317 319 320 322 325 326 328 329 330 331 331 330 332 333 333 334 335 336 334 335 336 337 338 338 338 339 338 338 338 339 339 338 338 337 338 337 336 335 335 334 334 334 334 333 333 332 332 332 332 332 330 330 330 330 329 329 329 328 326 324 323 321 321 321 321 318 320 320 320 320
300 301 303 298 296 296 301 302 301 300 302 301 302 294 298 301 303 302 303 303 303 303 304 305 306 308 310 313 315 318 321 324 324 327 329 330 331 332 332 332 333 334 334 334 334 335 335 335 335 335 337 338 338 338 338 338 339 339 339 338 337 338 337 337 337 336 335 335 334 333 332 332 333 333 332 331 331 331 329 329 329 329 329 329 327 325 323 323 322 321 320 318 319 318 318 319 319
301 296 294 299 297 298 299 301 301 299 300 303 300 295 297 300 300 302 303 303 303 303 304 305 305 306 307 310 312 314 317 322 324 325 327 329 330 331 332 332 333 333 333 334 335 335 335 335 336 335 335 336 337 337 338 338 338 339 339 333 338 338 337 337 337 337 335 335 334 333 332 332 332 332 332 332 330 330 329 328 329 329 329 328 326 324 323 322 321 321 320 319 317 317 317 317 318
299 296 296 296 298 297 297 298 301 301 301 301 300 296 299 300 302 302 302 303 303 303 303 305 305 305 306 306 308 310 312 317 322 323 325 328 330 331 332 332 333 334 334 334 334 335 335 335 335 335 335 335 335 336 337 337 337 338 338 339 338 338 337 337 337 337 336 336 334 332 331 331 330 330 331 331 330 329 329 329 329 330 329 327 325 324 322 322 321 320 319 319 318 316 316 317 317
295 297 295 298 295 297 295 298 301 302 301 298 300 297 298 301 303 302 302 304 303 303 303 304 305 305 306 307 307 307 308 310 314 320 322 327 329 331 332 329 332 334 334 334 335 335 335 335 335 335 336 335 334 335 336 336 336 337 338 338 338 338 338 337 337 337 336 336 334 332 332 331 330 331 332 332 331 329 329 328 328 328 327 326 325 324 323 322 322 321 319 319 318 317 316 317 317
293 293 294 294 296 296 295 295 298 299 299 299 299 298 298 301 303 302 303 304 303 303 303 304 305 306 306 307 307 307 308 308 309 312 317 322 326 328 330 331 331 333 334 334 335 336 335 335 335 335 334 335 334 335 335 335 335 335 336 337 338 338 338 340 338 336 336 336 336 335 333 332 331 333 333 332 330 329 327 327 327 327 326 325 324 323 323 322 321 320 318 318 319 318 317 318 317
296 296 295 296 293 293 294 296 298 300 298 296 298 297 298 300 301 303 304 304 303 303 304 305 305 306 306 307 308 308 309 308 311 311 312 314 320 323 326 327 328 330 331 333 332 334 334 335 335 335 334 334 334 333 333 333 333 333 332 334 334 334 336 336 338 338 338 336 336 336 336 334 333 332 333 333 332 331 330 328 326 327 326 325 324 323 323 322 321 320 319 319 319 319 317 317 315
300 299 298 296 295 296 296 297 297 298 298 297 298 299 298 299 301 303 304 305 304 304 304 304 305 306 306 307 307 309 309 309 316 313 312 311 311 310 312 318 324 327 328 329 331 332 333 333 334 333 335 334 333 332 331 331 329 331 331 330 330 332 333 335 336 337 337 336 336 337 337 335 334 333 333 333 332 328 329 329 329 328 327 326 325 324 324 323 323 322 321 320 318 317 315 314 314
299 297 297 296 297 295 297 296 297 298 296 297 299 298 299 300 302 303 304 304 303 303 303 304 305 306 307 308 309 310 310 312 310 309 308 309 309 310 310 310 312 318 323 326 327 329 331 332 332 333 334 333 332 332 332 331 332 330 330 330 330 330 331 332 333 335 336 337 337 337 337 336 335 334 332 332 332 331 330 329 330 330 328 325 323 323 323 320 323 322 321 319 318 316 315 316 314
298 297 296 295 295 297 296 296 297 298 295 295 298 297 298 300 301 303 303 304 305 305 305 305 305 306 307 307 308 308 309 309 309 309 309 308 310 310 309 309 310 312 318 322 325 327 329 330 331 332 332 332 332 332 332 332 332 332 331 330 331 331 334 334 334 334 336 336 337 337 337 337 337 335 333 331 331 331 331 331 330 329 326 323 321 321 321 321 322 322 320 318 317 316 315 317 315
297 296 294 293 296 293 291 295 297 296 296 296 297 296 298 300 302 303 303 302 303 302 301 301 302 302 303 304 304 305 306 307 307 308 307 307 309 309 308 308 309 310 312 317 321 324 326 328 330 331 332 332 332 332 331 333 333 333 333 332 333 333 331 333 335 335 335 335 335 336 337 337 337 336 335 333 331 332 331 330 328 327 326 324 322 321 322 321 322 321 320 317 317 315 312 313 314
300 298 296 296 294 294 298 295 296 296 296 295 296 295 295 297 297 299 299 299 298 300 301 301 302 304 305 307 307 308 306 307 308 307 307 307 308 308 309 309 309 309 310 313 318 321 323 326 328 330 330 331 332 331 330 331 331 331 332 333 333 333 333 332 331 331 333 333 333 335 335 336 336 336 336 335 330 330 330 330 328 328 328 327 325 323 322 323 322 322 321 318 316 315 315 313 312
295 300 299 297 296 295 296 295 294 294 294 297 295 289 291 297 298 299 299 299 299 301 302 303 304 305 306 305 307 309 309 308 306 307 309 310 310 311 310 309 307 308 308 310 313 317 319 323 325 327 328 329 330 330 329 329 328 328 328 327 326 325 324 324 324 324 326 326 328 332 334 335 335 335 335 335 335 330 330 330 330 329 328 328 325 324 323 324 322 320 320 319 317 317 316 314 312
294 294 299 297 296 297 296 295 295 290 288 294 294 289 287 296 296 297 297 298 299 301 302 302 303 304 305 306 307 307 307 309 310 309 310 310 310 311 310 311 311 309 310 310 311 313 316 318 322 324 325 326 328 328 328 326 326 326 326 326 325 324 323 325 327 328 328 328 329 329 330 332 332 332 333 334 334 335 333 332 331 330 329 329 328 326 323 321 321 321 321 319 318 316 315 312 313
293 297 298 297 297 297 296 297 297 295 295 294 294 295 289 291 296 298 298 297 298 300 301 302 303 303 304 304 306 306 308 307 309 309 309 310 310 310 309 309 309 309 309 308 309 310 313 317 320 321 323 324 326 327 327 326 325 325 325 325 325 324 324 324 326 326 328 328 327 328 329 329 330 330 331 331 331 331 331 332 333 333 331 330 327 325 324 324 324 324 321 320 318 317 316 313 313
296 295 300 298 297 298 298 297 296 297 295 290 293 297 289 289 295 296 297 295 297 298 300 301 302 303 304 305 305 306 306 307 307 310 309 309 309 308 309 308 309 310 312 312 312 313 314 317 319 320 321 323 324 324 325 325 325 325 325 324 324 324 325 325 325 327 326 327 326 326 326 327 327 329 329 330 329 330 329 330 332 331 331 331 326 326 326 325 323 322 320 318 318 317 316 315 314
294 298 301 301 302 301 299 296 296 295 290 286 292 294 287 289 296 294 296 295 296 298 300 301 301 303 304 304 305 305 306 307 307 307 308 308 308 308 309 309 310 311 312 314 314 316 318 319 319 321 322 323 324 324 324 324 324 324 324 324 323 323 324 324 324 323 324 324 323 323 323 324 325 325 326 327 327 328 328 329 329 329 329 329 327 329 328 326 324 323 322 320 319 317 316 315 314
299 300 299 298 298 297 296 297 294 291 285 288 290 290 291 285 294 295 293 295 297 299 300 300 301 302 303 304 305 306 306 307 307 307 307 308 309 309 310 309 310 312 314 317 317 317 318 319 320 319 318 320 321 322 323 323 324 324 323 324 323 322 323 323 322 322 322 321 320 321 322 322 324 323 324 324 324 325 325 326 325 326 327 327 327 328 327 326 325 324 323 322 320 318 316 316 314
301 298 296 295 293 295 293 291 292 286 284 287 287 290 291 284 290 298 297 296 298 300 298 299 301 302 303 303 304 305 306 306 307 308 308 308 309 309 310 309 310 311 313 315 317 319 318 318 317 315 316 316 318 320 322 322 322 322 323 323 323 323 322 321 321 320 320 320 320 320 321 320 320 321 321 320 321 322 322 323 324 324 324 325 325 326 326 326 327 327 324 322 321 320 319 316 315
299 297 295 289 286 287 284 287 283 284 284 286 288 290 287 287 292 295 296 297 298 301 301 301 301 302 303 303 304 305 306 307 307 307 308 309 309 309 309 309 310 310 310 312 313 316 319 319 318 317 317 317 317 318 319 319 320 320 320 320 321 321 321 321 320 319 319 318 318 318 318 318 318 318 318 318 320 321 321 321 321 320 321 321 322 322 323 323 323 323 323 325 322 320 320 318 316
296 293 291 287 284 282 281 284 286 286 284 286 288 291 285 292 294 299 297 298 300 302 302 303 303 302 303 303 304 304 305 306 306 307 308 308 308 309 309 309 309 309 310 310 311 312 313 313 312 312 312 315 317 318 317 316 317 317 318 317 318 317 317 317 317 316 317 317 317 316 316 316 316 317 317 318 319 319 319 320 320 319 319 320 319 319 320 320 321 320 321 320 321 323 323 321 319
295 303 295 290 289 284 280 284 281 282 285 284 288 285 286 286 290 294 298 299 298 298 299 301 303 303 303 303 304 304 304 305 306 306 306 306 307 307 308 308 308 309 310 310 311 311 312 311 310 310 309 310 312 313 314 314 314 314 315 315 315 316 316 316 316 316 315 315 315 315 315 316 315 316 316 317 317 317 317 317 317 317 318 318 318 318 319 319 319 319 318 318 318 319 320 322 320
297 298 299 291 290 294 286 286 286 285 284 283 283 285 292 293 296 297 297 297 297 298 298 300 300 301 302 302 303 303 303 304 305 305 305 305 306 306 307 307 307 307 308 309 310 310 310 309 309 309 309 309 309 310 310 310 310 310 311 311 312 311 311 312 313 314 314 314 314 313 313 314 314 314 314 314 314 314 314 314 314 315 316 316 316 316 316 316 316 316 316 316 316 318 318 318 318
293 294 289 292 295 292 284 284 284 282 284 284 289 288 292 296 296 296 296 296 295 297 298 299 299 300 302 302 303 303 303 304 305 305 304 304 305 305 306 306 306 306 306 306 306 308 308 308 307 307 307 307 307 308 309 310 310 310 309 310 310 310 311 310 310 310 311 312 312 312 312 312 312 313 313 313 312 312 312 312 312 312 313 313 314 315 315 315 315 314 314 314 314 315 315 315 316
294 287 293 295 297 297 289 283 284 283 281 284 288 285 288 288 286 295 294 294 294 295 297 299 300 300 301 303 303 303 304 303 303 303 303 303 304 304 304 304 304 305 305 304 305 306 306 307 306 306 305 305 306 306 306 307 308 308 307 308 308 308 308 309 309 309 309 309 310 310 310 310 310 310 310 311 311 310 311 309 310 310 311 311 311 312 312 312 313 312 313 312 313 313 313 313 313
294 293 303 292 285 285 288 287 280 280 280 283 285 287 288 290 291 291 292 293 294 295 297 298 298 299 301 302 303 303 302 302 302 302 303 304 303 303 303 303 303 304 304 304 305 305 305 305 305 305 304 304 305 306 305 305 306 306 306 305 306 306 306 306 306 307 308 307 306 306 306 307 308 307 306 307 307 307 307 308 308 308 309 309 309 309 310 310 310 310 310 310 311 311 310 310 311
296 296 293 296 292 289 286 286 287 286 282 281 283 283 284 292 294 294 294 295 296 295 296 297 299 300 301 302 302 302 302 303 303 303 303 303 303 303 303 303 303 303 304 304 304 305 304 304 304 304 304 304 304 304 304 304 304 305 305 304 304 304 304 304 304 304 304 304 304 304 304 304 303 305 305 305 305 305 305 305 306 306 307 307 307 307 308 308 308 308 308 307 308 308 307 307 308
290 291 289 293 292 294 292 294 288 286 284 284 283 282 286 294 297 297 297 297 297 296 296 298 299 301 302 302 302 302 303 303 303 303 302 302 302 302 302 302 302 303 303 304 304 303 303 304 303 303 303 302 302 303 303 303 303 303 303 302 302 302 302 303 303 303 303 302 302 302 302 302 303 303 303 303 303 303 303 304 304 304 305 305 305 305 306 306 306 306 306 306 306 305 305 304 305
293 292 290 291 289 286 284 283 292 285 285 283 283 281 289 295 293 298 298 299 299 299 298 299 300 301 302 303 303 303 303 303 303 303 302 302 301 301 302 303 303 303 302 302 303 303 302 302 303 302 302 302 301 302 302 302 302 302 301 301 301 301 302 302 302 301 301 300 300 300 300 301 301 301 301 302 301 301 302 302 302 302 303 303 303 304 304 304 303 303 303 304 303 303 302 302 303
Wind_Speed
8 6 0 1 4 4 6 2 5 4 5 2 5 4 6 3 3 6 6 6 6 6 4 2 3 3 5 6 7 7 12 10 6 6 4 4 6 9 9 11 13 12 11 10 9 8 9 7 8 11 10 9 9 8 7 4 4 6 7 9 15 12 11 10 12 13 12 12 12 13 14 13 13 12 13 13 12 11 11 14 15 14 12 13 14 14 15 14 14 14 14 14 13 13 13 14 15
3 0 1 2 3 4 3 2 5 4 2 5 3 2 8 6 4 5 7 3 8 6 4 3 3 3 3 5 3 4 11 9 9 9 8 8 10 8 10 11 13 13 10 9 8 7 8 9 6 10 9 9 9 8 7 5 5 5 8 8 11 12 11 12 12 12 11 12 13 13 13 12 13 12 12 13 12 12 11 11 14 14 13 14 13 14 13 13 13 13 13 13 13 12 12 13 14
2 2 1 3 5 4 2 4 5 2 4 4 5 4 6 6 4 4 8 9 8 6 4 4 3 3 2 5 4 7 6 5 9 10 8 10 11 8 10 12 11 12 11 8 9 8 7 9 7 9 9 10 9 8 6 6 4 4 7 9 9 12 10 12 12 11 10 11 14 14 13 13 12 12 12 12 12 10 12 14 12 13 14 13 13 13 13 13 13 13 13 13 12 12 12 12 12
4 3 3 2 3 1 4 4 6 3 2 5 6 5 5 5 6 9 9 9 7 5 4 4 5 3 5 3 7 2 9 6 7 9 8 9 6 10 10 12 11 10 9 7 8 8 8 9 8 10 10 10 9 7 6 5 5 5 7 9 10 12 10 10 13 11 11 11 13 13 11 11 12 12 12 11 11 12 12 11 14 13 13 13 13 12 13 12 13 13 13 12 12 12 12 12 12
2 1 2 4 5 4 3 3 4 3 1 3 5 7 5 3 9 8 9 7 5 2 4 3 3 4 3 4 4 3 6 8 7 6 7 6 12 12 12 11 10 10 8 8 8 9 9 10 8 10 10 10 9 8 7 7 6 7 8 8 10 10 10 10 11 11 11 12 13 12 11 11 11 12 12 12 11 10 9 12 12 11 12 12 12 12 12 12 13 12 12 12 13 12 12 12 12
2 1 0 4 3 3 3 4 5 4 7 5 4 6 6 5 8 9 9 6 5 2 2 4 4 2 3 2 4 3 2 2 7 6 7 7 11 11 13 9 9 9 9 7 9 7 9 9 7 9 10 10 8 7 7 7 7 8 9 9 9 10 11 10 10 11 11 12 12 12 12 11 11 11 12 11 11 10 9 12 10 10 11 12 12 12 12 12 12 12 12 12 12 12 12 11 11
1 2 3 2 2 2 5 5 3 1 6 4 6 5 6 7 8 9 8 7 3 3 1 0 1 2 5 5 5 6 6 6 5 7 4 10 11 12 12 8 9 9 9 9 11 5 9 7 10 11 10 9 9 8 7 8 8 8 8 8 7 7 9 11 12 11 11 12 12 12 12 12 11 11 11 10 12 13 11 10 10 11 11 11 12 12 12 12 11 11 12 11 11 11 11 11 11
3 4 1 5 3 3 6 3 1 1 5 5 3 4 6 8 8 7 8 6 7 4 6 3 1 6 6 2 0 5 5 3 7 8 13 10 11 12 10 9 9 10 9 9 11 8 10 8 9 9 9 9 8 8 8 8 8 7 6 6 6 7 8 8 9 10 11 11 11 12 11 11 10 10 10 11 12 9 9 10 9 11 13 12 11 11 12 12 11 11 12 12 12 12 11 11 11
1 5 1 3 5 3 4 4 2 4 6 3 5 4 4 6 6 7 7 4 8 2 6 5 1 5 6 4 5 6 6 6 4 10 11 11 12 12 8 9 9 9 9 8 11 10 10 8 9 9 9 9 9 9 8 8 8 7 6 6 5 7 8 8 9 10 12 11 11 11 12 11 10 9 8 10 12 10 9 9 8 9 9 10 12 12 11 11 11 11 11 11 11 11 10 10 10
3 4 3 5 3 5 5 3 4 4 4 4 4 7 6 6 6 5 7 5 5 5 5 4 2 4 2 1 6 6 6 6 6 10 10 10 12 12 10 9 8 10 9 9 9 9 9 9 9 9 8 9 8 8 8 8 8 7 6 6 7 7 8 8 8 9 9 11 11 10 11 11 10 8 7 10 11 10 10 10 8 9 11 13 12 11 11 10 11 10 11 10 10 10 10 10 10
5 4 3 4 6 5 6 5 2 5 5 5 4 4 5 5 6 5 6 6 4 3 5 4 5 5 3 3 6 5 9 6 9 11 11 11 11 11 10 8 8 9 9 8 10 8 10 10 9 9 8 7 7 8 8 8 8 7 6 5 6 6 7 7 7 7 8 9 9 10 10 10 9 8 7 7 10 11 9 8 8 8 9 10 11 10 11 11 11 11 10 10 10 9 10 10 10
4 5 4 6 6 5 3 3 4 5 5 5 6 6 4 7 6 6 6 7 6 4 5 8 2 2 2 2 6 7 9 8 10 10 11 10 10 10 11 8 8 8 8 8 9 9 9 10 8 8 8 8 8 7 7 6 6 6 6 6 5 6 7 6 6 8 8 10 9 10 10 10 9 7 7 8 10 10 10 8 8 7 9 10 10 10 11 11 10 10 10 9 9 9 9 9 9
5 3 6 6 2 3 5 2 5 5 5 6 8 5 5 7 7 6 6 4 5 4 6 4 5 3 2 3 6 10 9 7 10 10 10 9 8 8 9 9 9 8 9 8 9 9 9 9 8 9 8 9 8 8 7 7 6 6 6 6 5 6 7 8 9 7 9 10 10 10 9 8 8 7 6 9 9 9 10 8 7 6 8 8 8 9 10 10 10 9 9 8 8 8 8 9 8
5 4 3 5 2 3 3 2 6 5 5 8 6 8 7 6 4 2 6 5 6 2 6 4 2 2 1 4 6 7 8 9 10 11 9 10 8 8 9 9 8 8 8 8 8 9 9 8 8 9 10 8 8 7 7 8 7 6 6 6 6 6 8 8 7 8 8 9 9 9 8 6 7 6 7 11 10 8 8 8 6 6 11 13 12 11 10 9 9 8 7 8 7 7 8 8 8
3 1 3 3 2 4 1 4 7 6 7 8 6 10 7 1 1 2 4 4 7 8 6 1 2 4 4 4 7 7 12 12 11 10 9 7 9 9 8 8 7 7 7 7 8 8 8 8 8 8 9 8 8 7 6 7 8 6 6 6 6 6 6 6 6 8 9 9 9 9 8 8 7 7 7 9 9 8 9 9 10 9 8 8 9 9 9 8 7 7 7 7 7 7 7 8 7
3 4 3 4 5 6 6 3 2 5 7 8 7 8 8 5 1 3 3 7 6 3 4 4 3 2 3 5 8 11 16 14 12 11 9 7 8 8 6 9 8 8 7 7 8 7 8 8 7 7 7 8 7 6 7 8 8 8 6 6 6 6 6 6 7 8 9 9 9 9 9 8 6 6 7 9 9 9 9 7 7 8 8 7 7 8 7 7 6 6 6 6 6 6 8 7 7
3 4 5 5 6 7 7 4 7 4 9 8 8 9 7 5 4 1 3 4 3 6 4 5 4 2 3 6 6 13 14 14 12 12 11 9 8 7 6 6 7 7 6 7 6 7 8 8 9 7 7 8 7 6 6 7 7 9 6 6 7 6 6 6 7 7 7 7 7 8 8 5 6 5 5 6 8 6 6 7 7 7 7 7 7 6 6 6 6 5 5 6 7 8 7 7 6
5 6 6 7 4 8 7 3 3 5 8 9 10 10 7 7 6 4 2 4 1 5 5 6 5 4 7 7 3 8 13 14 14 13 11 10 8 8 8 7 7 8 8 8 8 8 8 8 8 8 7 8 7 5 5 6 6 6 6 6 6 5 5 6 6 5 6 6 6 6 4 4 4 4 5 5 6 7 6 7 6 6 7 7 7 4 5 6 5 5 5 5 4 5 8 4 4
7 5 5 6 5 5 3 6 6 1 8 9 9 9 6 5 10 6 6 7 6 6 6 7 6 8 9 8 8 12 12 13 14 13 14 13 11 11 10 8 8 9 8 8 7 9 7 7 7 8 7 7 7 6 4 5 7 5 6 6 5 5 6 6 5 5 5 5 6 5 3 3 2 3 4 5 6 10 8 7 7 6 7 8 9 9 6 5 5 4 4 2 2 5 5 3 3
4 4 7 0 7 7 7 4 6 7 4 10 9 8 4 5 5 7 5 7 6 6 7 7 7 10 10 11 12 11 12 13 13 14 14 14 12 11 10 11 10 10 9 8 8 8 8 7 8 7 7 7 7 6 5 5 5 5 6 5 5 5 5 5 4 4 4 4 4 4 2 4 3 4 7 9 8 5 5 7 8 8 7 7 9 6 7 7 7 6 3 2 4 5 4 0 2
3 6 3 5 4 5 4 5 4 4 5 8 8 8 5 5 3 7 4 5 6 5 4 7 8 10 13 13 14 12 13 14 13 13 13 14 12 10 9 9 9 9 8 8 7 8 10 9 8 8 8 7 8 6 6 6 6 5 5 5 5 5 5 5 4 4 4 4 4 4 2 4 3 4 5 5 5 5 5 5 5 4 4 4 4 3 3 4 4 3 3 5 5 2 1 1 0
5 0 4 3 2 2 4 4 4 3 4 3 8 9 6 6 3 6 6 7 3 2 3 2 5 4 16 14 14 12 14 14 14 14 14 14 14 12 10 9 8 8 8 8 9 9 9 9 9 8 8 8 8 7 7 6 6 6 6 5 5 5 4 5 4 4 4 4 4 3 3 4 3 4 5 4 4 4 5 5 4 4 4 4 4 3 3 3 3 2 3 4 2 2 1 1 2
8 2 2 4 4 3 3 3 3 1 3 5 8 4 6 7 4 6 5 7 6 6 8 8 6 5 11 12 14 13 13 14 15 15 15 14 14 12 10 8 9 9 8 8 8 8 9 10 10 9 9 8 9 8 7 6 7 6 5 6 6 5 5 5 4 4 4 5 5 4 4 4 4 4 4 4 4 4 4 4 4 3 4 3 4 3 2 2 3 2 3 2 2 1 1 1 2
7 7 6 5 3 4 2 4 3 2 2 5 4 3 4 7 6 2 6 4 7 5 6 6 4 3 8 13 14 15 15 15 15 15 15 14 14 13 11 9 8 7 7 9 8 9 8 11 10 10 9 9 9 9 8 7 7 7 7 5 5 6 5 5 5 4 3 4 5 4 5 4 4 4 4 4 4 4 4 3 3 3 3 3 3 3 3 3 3 2 2 2 2 2 2 2 2
5 7 7 5 4 4 3 4 3 3 3 2 2 5 2 2 1 0 5 7 6 5 3 3 4 4 6 10 12 12 13 13 13 13 12 10 12 12 11 9 9 9 9 10 9 9 10 9 11 11 10 11 9 9 9 7 7 7 7 6 7 6 6 6 5 5 5 4 5 5 5 4 4 4 4 4 4 4 3 3 3 3 3 3 3 3 3 3 3 3 3 3 3 3 3 3 3
6 8 8 7 5 5 4 5 3 4 3 3 5 4 3 2 1 6 7 5 5 3 2 2 2 3 6 8 10 11 12 13 13 13 13 11 11 13 13 11 10 10 10 10 10 9 9 10 11 12 11 10 10 9 8 8 7 7 7 7 7 7 7 6 6 5 5 4 4 5 5 5 4 4 4 4 4 4 4 4 3 3 3 3 3 3 3 3 3 3 3 3 3 3 3 3 2
10 10 9 8 7 6 2 3 4 3 4 4 4 5 3 2 2 3 5 5 3 4 4 3 4 6 6 6 8 8 10 12 13 11 11 11 10 11 12 12 12 11 10 11 10 10 9 9 10 11 12 10 9 9 9 8 8 8 7 7 7 6 7 7 6 6 5 5 5 5 5 5 4 4 4 4 4 4 4 4 4 4 4 4 4 3 3 3 3 3 3 3 3 3 3 3 3
11 12 10 8 5 4 5 5 5 5 4 2 3 3 3 4 3 3 6 4 2 4 5 5 5 6 6 7 7 7 7 8 9 10 13 13 10 10 12 11 12 11 11 11 10 9 10 11 11 11 11 10 9 10 9 8 8 7 7 7 6 6 6 7 6 6 6 6 6 6 7 5 5 4 4 4 4 4 4 4 4 4 4 4 4 4 3 3 3 3 3 3 3 3 3 3 4
11 14 8 8 7 6 3 5 5 4 3 2 1 3 7 8 8 6 7 4 3 1 3 5 6 6 5 6 6 7 7 8 9 10 12 11 10 10 12 12 12 12 9 10 10 10 11 11 11 12 12 11 11 11 9 9 8 8 7 7 7 6 6 6 7 7 6 7 6 7 6 7 6 5 4 5 5 4 4 4 4 4 4 4 4 4 4 3 3 3 3 4 4 4 5 5 4
8 9 7 8 7 6 6 3 3 3 3 1 2 5 7 13 9 8 5 4 3 3 4 5 5 6 6 6 6 6 7 8 9 10 9 10 10 10 11 12 12 11 9 8 11 12 10 9 9 9 11 12 12 11 10 9 9 8 7 7 7 7 7 7 7 7 7 7 7 8 8 8 8 5 5 5 5 5 5 5 5 5 4 4 4 4 4 4 4 4 4 4 5 5 6 6 6
9 5 5 7 8 7 8 5 5 5 3 3 4 6 1 8 9 6 4 4 4 5 6 6 5 6 6 6 6 7 8 9 10 10 10 10 9 8 10 10 12 12 9 9 12 12 13 10 9 10 10 12 11 12 11 10 9 9 8 8 8 8 8 7 7 7 6 6 7 7 8 9 9 8 7 7 6 5 5 5 5 5 4 4 4 4 4 4 4 5 4 5 5 5 6 6 6
5 7 8 7 8 6 7 3 4 6 4 5 5 6 9 7 7 5 3 4 5 5 4 6 5 5 6 6 7 7 8 9 9 10 10 10 9 8 9 11 11 12 11 10 10 11 12 12 11 10 12 13 12 12 12 11 10 9 8 7 8 8 7 7 7 7 6 6 6 5 6 8 7 8 8 7 7 7 5 5 5 5 5 4 4 4 4 5 5 5 5 5 5 6 6 7 6
5 8 6 9 8 6 6 3 2 2 5 5 9 5 2 6 6 5 4 4 4 5 6 6 6 6 6 6 6 7 7 8 9 10 10 10 10 9 9 10 10 12 11 11 11 11 11 12 11 12 11 12 13 12 12 11 10 10 10 8 9 8 7 8 6 5 6 5 4 7 7 8 8 7 8 8 8 8 6 5 5 5 5 4 4 5 5 5 5 5 6 6 6 6 7 8 7
8 4 3 5 12 8 5 5 3 2 5 7 8 8 10 4 6 7 6 5 4 4 4 6 5 5 6 5 6 6 7 7 9 10 11 11 9 10 8 8 10 10 11 11 11 11 11 11 11 11 10 10 10 11 11 10 10 10 9 9 9 10 9 8 8 8 7 5 5 7 8 8 8 8 9 9 8 7 5 5 6 6 6 6 6 6 6 6 6 6 6 6 7 7 7 8 8
10 9 4 2 3 4 4 7 7 6 5 7 8 11 12 9 5 8 9 7 4 4 4 5 5 5 6 6 6 7 7 8 8 8 10 12 10 10 9 9 9 9 9 11 11 10 10 10 9 11 10 10 9 9 10 10 10 10 9 10 9 10 9 7 8 10 9 9 9 8 8 7 8 9 9 9 9 6 6 6 5 5 5 6 6 7 7 7 7 7 8 7 7 8 7 7 6
13 15 11 7 9 7 5 6 4 4 8 8 11 9 10 11 11 8 8 9 6 7 6 6 6 7 7 7 7 7 7 8 3 6 6 5 7 8 8 9 9 9 9 10 11 11 10 10 10 9 11 10 9 9 9 9 8 8 9 9 10 10 10 9 9 8 6 7 7 8 8 8 8 7 8 8 8 8 8 6 6 7 8 8 8 9 8 8 9 9 9 8 8 7 6 6 3
13 13 11 8 8 6 7 7 3 2 2 9 10 11 12 10 7 6 6 9 6 7 9 8 8 8 8 7 7 6 7 6 6 4 4 6 6 6 6 7 8 10 10 11 12 12 12 11 11 11 10 10 9 9 8 9 9 9 9 9 9 9 9 9 9 10 10 9 6 7 7 7 5 6 8 9 8 8 8 7 8 9 8 8 8 8 8 8 7 7 7 7 8 8 6 6 5
10 9 10 7 9 5 4 4 3 2 2 4 5 7 11 11 10 10 9 8 9 9 10 10 10 10 8 7 7 6 5 3 3 4 6 7 6 7 6 6 7 10 11 12 13 13 12 12 12 11 9 10 10 10 8 9 8 8 7 8 8 7 7 8 8 8 8 8 9 8 8 9 9 10 8 9 9 9 9 8 9 10 8 6 5 5 6 7 8 8 6 6 6 8 7 5 5
7 8 8 7 6 7 4 5 3 3 1 5 2 7 9 10 10 9 10 10 7 5 3 4 3 3 4 3 4 5 4 4 4 5 6 6 7 7 6 6 7 8 9 10 10 11 11 11 11 10 9 9 9 9 9 8 8 8 7 6 6 6 6 6 6 6 6 7 9 10 10 9 8 7 6 7 8 9 10 9 9 6 5 4 5 6 7 9 9 9 8 7 6 6 7 5 6
6 6 7 8 7 8 4 4 5 2 1 2 5 6 8 10 10 11 2 2 2 1 3 4 4 6 6 5 3 3 5 4 5 5 5 6 6 6 5 5 6 6 6 8 9 10 8 9 9 10 9 9 8 9 8 7 7 7 7 7 5 5 4 4 6 6 6 7 8 8 9 8 9 9 10 9 8 8 8 8 6 6 7 6 7 8 8 9 9 8 8 8 7 7 5 7 7
3 5 6 4 6 4 4 6 5 3 3 1 6 7 9 8 9 8 4 3 2 3 3 3 4 4 3 3 4 5 5 4 3 3 3 3 4 5 5 5 4 5 6 6 6 7 6 8 8 8 7 8 7 7 8 7 6 6 6 5 5 5 5 4 5 6 7 7 7 6 7 8 9 9 9 8 7 8 7 7 7 7 8 8 8 8 10 10 9 7 6 6 8 9 7 6 6
5 3 2 3 8 7 8 10 8 4 4 4 1 4 6 7 10 9 6 5 5 4 4 4 2 2 3 3 3 1 3 2 3 2 1 1 1 3 3 4 4 5 5 5 5 6 5 5 7 7 6 6 7 7 8 7 7 8 8 7 8 8 8 7 8 8 6 7 7 6 7 7 7 8 9 9 8 7 8 8 8 7 7 6 4 6 5 4 5 6 7 8 10 10 8 5 7
7 6 4 3 6 8 9 9 5 4 4 3 1 6 3 5 6 7 5 4 5 4 4 3 2 2 2 2 1 1 0 1 2 2 1 2 3 3 4 3 4 5 4 3 2 4 5 5 6 7 6 5 6 7 8 7 7 8 9 9 8 8 7 6 5 5 6 5 5 6 6 6 7 8 8 7 8 6 7 8 9 8 8 7 7 7 8 8 8 9 9 9 9 7 7 9 10
6 3 2 5 8 9 9 9 7 2 4 4 2 2 4 5 3 6 6 5 5 5 5 4 3 2 1 1 1 0 1 1 1 2 3 3 3 2 4 4 3 3 3 4 5 4 6 5 6 6 5 5 6 6 7 7 7 7 7 8 7 7 7 6 5 5 5 5 5 5 5 5 5 5 6 7 8 9 8 7 7 7 8 9 8 8 9 10 9 7 7 7 6 6 8 9 9
1 0 2 6 7 8 8 7 3 2 2 3 5 2 3 7 3 4 6 6 7 8 7 5 3 2 2 1 2 2 2 2 1 2 3 3 4 4 4 4 4 4 3 4 5 6 6 6 6 6 6 6 6 7 7 7 6 6 7 7 7 6 6 5 4 4 3 4 4 4 6 6 5 5 6 7 6 7 7 7 7 7 7 7 5 5 6 6 6 7 7 8 8 9 9 9 8
1 3 4 7 7 6 5 3 3 2 3 5 6 3 4 7 4 5 4 6 9 9 7 5 3 3 2 2 3 3 3 3 3 3 4 4 4 4 4 5 5 4 4 5 5 5 6 6 7 7 7 5 6 7 6 7 6 6 5 6 6 5 4 3 3 4 4 3 5 6 6 6 5 6 6 6 5 7 8 7 8 9 9 9 7 9 7 8 9 9 11 11 11 11 9 10 10
10 7 11 8 6 4 3 1 2 3 4 4 5 0 2 3 5 7 7 5 6 8 6 4 5 4 3 3 3 2 3 3 3 4 5 5 4 5 5 6 6 6 5 6 6 6 6 7 7 8 7 6 5 7 6 7 6 5 5 4 5 5 4 4 4 4 4 4 5 5 5 5 5 5 4 5 6 6 6 7 7 9 9 7 7 7 8 6 5 6 7 8 9 10 9 9 10
8 5 8 9 5 4 3 2 1 4 5 3 3 1 2 6 3 3 5 3 1 6 9 9 8 7 5 4 3 3 3 4 4 4 5 5 6 5 5 6 7 7 7 7 6 7 7 7 8 9 7 7 7 6 6 6 5 5 4 4 4 3 4 4 4 4 4 5 5 5 4 4 4 4 5 5 5 6 6 7 7 8 7 7 7 7 9 8 7 6 6 6 7 9 10 9 9
2 9 9 7 5 3 4 3 5 7 4 2 2 1 2 11 10 3 1 3 2 2 5 9 10 8 7 5 4 3 3 4 4 4 4 4 4 5 5 6 6 6 6 7 7 6 7 8 8 9 8 7 7 6 7 6 5 4 3 3 2 1 3 2 3 4 4 4 4 4 4 4 4 4 4 4 5 5 5 6 6 5 6 6 7 7 7 8 8 8 8 7 7 8 8 10 10
8 10 10 7 6 5 5 6 2 1 3 3 3 1 5 5 7 10 7 6 6 6 7 8 9 9 8 6 5 4 3 4 4 4 4 4 4 4 5 5 5 5 6 6 6 6 6 6 7 8 7 6 7 7 7 6 6 5 4 4 3 3 3 3 3 3 3 3 3 3 4 4 4 4 5 5 4 5 5 5 6 7 7 7 7 8 8 8 8 9 9 9 9 8 7 9 9
10 2 9 6 5 3 6 6 6 3 1 3 4 1 3 5 2 6 6 9 8 7 6 6 6 7 6 5 5 5 5 4 4 4 4 4 4 5 5 5 5 5 6 5 5 6 6 6 7 8 8 7 7 6 6 6 5 5 4 3 3 3 2 2 2 1 1 2 2 2 3 3 3 4 4 4 4 5 6 6 6 7 7 7 7 7 6 6 6 6 7 8 9 9 8 6 6
1 1 3 2 4 3 1 2 1 3 3 3 2 5 3 3 5 4 4 8 7 7 7 6 6 6 6 6 6 5 5 4 4 4 5 5 5 5 5 5 5 5 6 5 6 5 6 7 7 7 8 7 7 7 6 6 5 5 5 4 4 3 2 1 1 1 1 1 2 2 3 3 4 4 4 4 5 5 5 5 6 6 7 7 7 8 8 7 7 8 8 8 9 6 7 9 9
6 3 4 2 5 6 4 2 3 1 1 4 5 4 6 4 5 8 8 9 7 6 8 8 8 8 7 6 5 5 5 5 4 4 4 5 5 5 5 5 5 5 5 6 6 6 6 6 7 8 8 7 7 7 6 6 6 6 6 5 4 4 4 4 3 3 2 2 2 2 3 3 4 4 4 4 5 5 5 5 5 5 6 6 6 7 7 7 7 7 7 8 9 9 9 9 9
5 3 6 3 0 3 1 3 2 2 4 2 4 5 5 5 3 9 11 10 9 8 10 9 9 8 8 6 5 5 5 4 4 5 5 5 5 5 5 5 6 6 6 6 7 6 6 6 7 7 7 8 7 7 7 6 6 6 6 6 6 5 4 4 4 4 4 3 3 3 3 4 5 5 5 4 5 5 5 5 5 5 5 5 6 6 6 7 7 7 8 8 7 7 8 8 9
2 1 1 5 3 4 3 2 2 4 4 4 5 8 6 6 5 7 12 13 13 12 12 12 11 10 9 8 7 6 6 5 5 5 4 4 4 4 5 6 6 6 6 6 6 6 6 7 7 7 8 7 7 6 6 6 6 5 5 6 6 6 6 5 5 5 4 4 5 5 5 5 4 5 5 5 5 5 5 5 5 5 5 5 5 6 6 6 6 7 7 7 7 7 8 9 8
3 1 2 3 2 4 5 5 2 2 5 3 3 4 4 7 6 12 14 16 16 15 14 14 14 13 10 9 8 7 7 6 5 5 4 4 4 4 4 4 5 5 5 5 6 5 7 6 7 7 8 7 8 8 7 8 7 7 6 6 7 6 6 6 6 5 5 5 5 5 5 5 5 5 5 6 5 5 6 6 5 5 6 6 6 5 5 5 6 6 6 7 7 7 8 9 9
5 6 6 2 1 2 3 2 5 4 4 5 5 3 4 5 9 11 14 17 17 17 16 14 14 13 11 10 9 8 7 6 5 5 5 5 5 5 5 5 5 5 5 5 5 6 6 6 7 7 7 8 8 7 7 7 6 7 7 7 6 6 6 5 5 5 5 5 4 5 5 4 4 4 5 5 5 6 6 6 6 6 6 6 6 6 5 5 5 6 6 7 7 8 9 10 9
7 9 9 10 7 4 6 5 2 0 3 3 3 5 1 3 4 1 5 10 15 15 16 14 15 14 12 10 10 9 8 7 7 6 6 5 5 5 5 4 4 4 5 5 5 5 6 6 5 6 6 6 6 6 6 6 6 6 7 6 6 5 4 4 5 5 5 5 5 4 5 4 4 4 4 4 5 5 5 6 6 6 6 6 6 6 6 5 6 6 7 5 6 9 9 10 9
Wind_Direction
251 216 229 290 266 269 282 218 252 154 238 108 122 211 96 102 96 143 118 146 157 76 61 134 77 144 320 2 2 45 36 23 21 326 70 99 174 121 127 131 131 131 124 118 119 134 132 117 112 106 110 107 104 103 96 88 80 87 97 92 90 90 86 79 82 88 90 88 88 87 82 82 80 82 82 80 78 77 79 82 78 76 76 77 76 74 75 76 80 77 75 75 76 74 75 74 72
255 297 216 268 271 276 204 356 278 147 230 141 91 45 110 107 193 155 139 120 46 110 109 119 127 59 338 326 322 158 62 52 36 71 83 123 153 126 131 138 140 126 122 125 129 134 127 120 118 113 111 107 103 100 97 100 78 81 97 90 98 88 83 82 80 84 89 97 92 86 82 79 81 82 87 85 82 79 78 79 81 79 80 75 76 82 82 81 82 80 77 75 76 77 77 79 80
2 316 240 223 247 283 338 228 256 201 196 148 117 91 116 149 161 121 81 74 87 103 109 113 90 198 265 233 200 353 92 75 82 90 106 138 141 141 145 140 137 130 124 132 131 128 124 118 113 108 106 100 94 94 99 93 89 77 101 107 100 91 87 90 95 91 88 86 86 84 86 87 87 88 89 87 84 85 80 81 89 87 84 83 82 82 82 86 82 76 77 76 77 80 81 80 81
285 33 314 276 242 205 245 216 268 208 260 80 128 114 162 158 110 89 81 83 90 123 146 138 196 70 312 6 33 123 100 94 76 116 119 162 133 139 142 142 140 131 128 132 135 129 125 118 107 107 106 104 106 105 106 102 83 70 87 94 88 88 87 89 99 96 97 94 90 86 83 87 89 93 94 93 87 79 81 85 84 90 88 82 73 75 87 83 79 77 75 79 80 82 86 88 86
268 42 318 293 280 210 264 302 290 255 181 170 111 131 156 155 116 105 91 92 98 128 193 148 196 113 6 330 345 338 72 98 119 121 140 99 111 145 142 142 146 135 135 138 134 122 114 99 104 114 109 106 108 107 95 89 84 73 99 99 95 93 95 87 89 101 101 93 89 87 87 87 90 96 96 94 92 89 85 84 88 91 90 90 92 89 77 79 79 79 80 79 79 80 83 84 85
76 286 182 269 282 6 259 223 199 229 41 344 117 125 148 123 118 115 112 103 92 90 15 178 341 108 177 66 8 39 19 174 126 126 138 115 141 143 133 153 148 143 142 140 94 88 123 111 111 117 115 110 109 106 94 94 85 82 82 88 103 103 102 98 96 93 86 93 95 89 90 91 98 102 98 93 94 99 93 91 93 95 91 90 92 92 87 84 78 74 75 76 80 82 81 82 85
344 244 183 192 160 231 263 243 185 39 69 358 50 123 140 122 119 130 128 123 127 98 211 171 166 245 213 114 117 58 61 84 146 132 113 133 137 145 144 156 145 142 139 131 97 113 122 110 125 118 119 119 115 111 108 93 85 83 87 90 90 91 97 108 99 91 94 95 95 94 91 93 97 98 96 98 82 78 83 91 95 90 89 89 82 77 79 84 87 89 87 87 88 89 86 84 84
67 275 103 242 181 219 235 283 302 17 81 35 50 83 124 126 136 153 151 200 155 197 168 111 234 287 65 243 284 83 96 334 82 127 112 140 144 137 160 152 152 138 144 129 115 132 126 121 122 117 120 120 121 115 106 94 89 85 89 100 95 102 101 98 98 89 89 93 96 96 91 91 90 91 98 96 87 89 90 85 86 88 86 90 95 94 88 83 81 80 80 86 90 87 87 89 89
171 265 99 259 232 198 264 219 93 68 104 118 119 57 33 133 155 153 164 97 121 100 163 162 86 249 79 138 66 113 98 75 114 112 130 140 146 148 162 151 150 143 139 133 120 138 141 125 122 118 122 126 120 115 110 106 98 93 86 101 103 93 94 95 95 90 88 88 94 95 97 94 92 93 97 91 91 89 90 100 94 98 103 96 81 80 83 86 85 83 84 84 86 89 91 93 93
187 250 191 235 291 212 234 168 208 108 98 96 104 137 155 150 149 196 142 163 129 150 89 81 150 288 10 102 125 152 120 125 150 134 142 147 148 154 156 154 140 146 146 134 133 143 137 127 116 123 126 122 118 113 110 110 107 98 97 89 95 83 86 89 95 102 108 106 98 98 100 99 95 92 82 97 103 102 95 89 77 78 80 83 89 90 89 91 87 87 86 87 89 90 92 95 92
207 181 332 244 210 236 209 155 142 145 134 138 124 124 145 160 159 176 165 118 140 128 137 167 201 223 247 94 58 82 104 126 160 146 149 157 155 156 154 154 147 153 146 139 131 146 143 139 115 118 111 104 108 114 113 111 109 107 96 96 101 87 91 100 111 100 97 92 93 104 105 102 102 96 88 91 107 100 86 87 97 98 98 92 92 93 93 90 86 83 84 85 88 93 89 87 88
231 202 179 230 222 225 187 128 135 116 128 152 130 144 162 156 168 176 156 157 153 157 153 195 66 66 179 150 114 118 119 145 156 146 148 153 165 162 154 159 147 156 145 141 144 144 138 136 141 114 105 109 107 106 103 98 110 114 119 115 111 101 89 73 102 115 111 108 108 111 107 103 97 93 83 88 105 104 99 87 80 87 97 93 90 87 83 82 83 83 84 87 88 87 93 90 88
260 175 205 235 311 273 50 198 129 122 151 180 140 136 159 164 178 181 170 128 153 176 149 159 87 236 178 136 98 122 131 158 144 147 146 158 164 168 159 155 153 158 149 152 151 139 140 149 144 151 126 116 108 108 109 94 84 72 86 85 82 89 95 64 54 87 115 124 117 110 104 96 100 94 92 65 52 102 100 89 77 82 103 106 109 97 88 82 80 83 84 84 86 84 86 92 88
253 206 223 223 65 291 220 97 134 178 163 110 97 136 161 172 185 247 158 170 175 171 80 87 192 153 193 129 146 151 137 168 140 151 149 168 163 157 179 140 150 161 156 162 156 150 149 156 152 151 143 151 141 123 111 110 90 87 88 90 90 86 87 81 75 82 91 99 101 102 100 83 81 85 79 64 53 55 102 106 102 64 75 72 78 83 85 82 80 82 85 84 83 83 80 82 77
245 147 244 269 194 221 173 217 176 201 117 129 120 148 159 75 17 274 198 218 102 83 106 68 50 215 83 267 138 158 141 152 143 153 156 170 166 169 169 136 161 161 164 174 164 161 159 159 158 153 163 161 151 157 147 122 113 100 99 98 96 96 91 92 93 95 102 106 106 104 96 89 80 85 76 71 58 60 81 75 75 75 77 94 87 90 89 90 90 86 88 86 87 88 88 78 74
269 198 229 225 204 216 147 236 147 228 123 128 141 146 156 124 178 239 55 356 95 100 193 139 218 357 43 60 45 109 132 140 146 155 160 157 170 160 155 162 171 164 178 178 175 171 166 167 163 162 167 160 163 152 150 146 123 116 107 94 95 100 96 95 98 98 104 109 111 115 112 113 117 101 107 90 77 65 60 75 79 87 92 89 88 91 93 93 92 92 93 99 96 95 88 85 83
265 266 203 224 206 217 143 208 171 188 110 112 144 160 168 156 145 302 335 302 192 143 190 109 149 151 41 76 86 114 128 135 145 158 159 164 167 163 171 177 175 173 172 186 194 178 175 175 170 169 173 161 157 154 155 147 125 125 115 94 98 102 108 109 110 116 114 119 129 130 153 157 134 136 165 120 113 81 69 71 74 69 71 70 80 82 93 97 96 100 101 99 87 92 89 76 63
207 204 225 209 197 208 144 187 142 96 135 137 162 174 173 152 166 155 195 190 158 140 175 122 103 124 86 114 111 125 133 143 152 162 167 165 177 171 182 179 187 179 177 187 194 189 181 182 177 179 172 166 159 165 156 143 146 176 162 160 166 142 135 141 161 163 160 141 141 164 180 148 144 153 110 140 130 136 100 86 81 77 66 61 62 86 102 99 97 96 89 87 116 129 157 161 129
203 201 228 219 205 82 41 81 57 282 126 146 158 178 201 158 165 161 206 160 171 171 180 164 160 140 119 121 134 138 149 153 159 170 171 173 185 181 184 183 190 184 184 187 192 190 190 183 188 182 172 172 166 165 173 166 160 180 175 170 164 188 164 193 191 176 186 166 180 195 196 142 132 125 104 68 78 70 94 95 86 77 72 77 71 65 68 96 93 81 87 136 147 209 221 231 124
220 252 200 99 64 88 65 48 83 38 72 141 152 170 208 116 168 145 229 152 176 199 165 182 189 164 157 139 149 148 162 161 168 175 180 184 190 186 188 187 188 188 188 192 187 192 188 188 190 191 179 176 178 176 179 183 177 185 183 177 182 184 172 199 199 186 193 180 190 208 184 114 155 111 100 118 123 140 113 104 104 101 102 103 119 111 102 87 103 95 110 180 205 220 228 189 139
124 220 245 114 110 134 77 56 63 52 358 144 149 146 194 162 156 185 186 173 195 217 176 177 191 177 162 150 157 163 170 167 175 184 188 191 193 192 194 190 188 185 186 188 190 192 193 194 188 192 185 183 189 183 183 193 185 190 188 180 193 192 178 190 193 194 191 187 199 214 130 133 187 137 162 164 195 167 158 159 163 180 166 158 210 194 181 147 220 156 168 215 228 213 276 251 286
162 182 39 60 116 108 70 74 58 42 341 145 133 159 185 124 183 210 205 220 123 142 113 70 47 158 152 153 157 166 174 173 180 188 193 195 195 195 195 188 185 188 178 189 195 194 193 196 193 188 188 188 190 193 190 189 183 199 193 187 193 208 196 186 201 188 186 192 197 214 159 167 193 157 165 175 198 173 175 177 186 184 160 153 201 195 199 161 220 184 198 217 238 234 259 297 297
185 129 97 51 18 54 82 99 66 300 132 151 161 129 109 181 188 204 242 250 72 41 51 54 65 58 146 149 153 168 178 181 185 191 194 196 196 200 198 190 184 188 181 196 195 201 193 198 196 193 191 190 190 202 199 189 200 199 200 195 194 204 205 207 192 203 195 182 198 194 196 182 190 179 174 186 194 187 191 191 186 179 168 183 195 214 181 199 224 211 218 223 247 267 267 292 271
257 154 125 87 18 68 52 77 123 99 177 130 71 92 204 184 204 112 240 248 92 76 51 50 66 109 141 154 166 173 182 188 192 194 196 199 198 200 200 200 192 185 187 196 198 201 196 199 198 198 196 192 192 199 203 201 199 206 204 198 208 203 208 212 215 195 194 187 197 200 209 196 193 194 181 188 194 202 198 194 194 178 185 193 193 214 179 213 209 232 231 236 244 242 241 246 248
204 125 138 106 86 80 88 107 131 140 78 64 133 178 159 223 334 108 227 228 125 105 63 78 86 138 172 168 174 179 185 191 194 195 198 202 200 202 205 207 203 197 199 198 199 202 192 202 202 202 200 199 197 198 206 204 207 209 205 204 210 207 215 217 219 211 199 205 197 215 209 213 202 201 191 193 196 201 196 193 199 196 192 196 187 209 199 205 215 223 221 225 224 233 224 218 238
227 130 122 130 110 109 113 120 129 146 121 150 168 180 110 73 360 260 238 119 86 98 136 144 159 161 179 185 181 181 185 189 194 194 197 198 201 202 201 208 207 204 201 202 201 202 196 196 205 207 205 203 203 203 207 206 209 211 214 207 209 205 220 222 222 225 225 199 202 208 215 227 217 210 195 203 199 197 201 187 205 210 195 201 190 209 201 213 213 211 225 228 230 238 246 238 236
116 125 127 126 120 123 184 136 132 135 120 164 210 178 156 117 243 210 108 94 100 166 161 152 204 212 195 189 186 189 187 190 192 193 194 198 202 205 201 203 210 208 199 200 202 200 198 191 203 208 209 206 203 206 206 208 206 215 218 218 209 207 219 222 222 229 234 232 222 196 221 230 234 224 213 203 204 201 201 199 207 205 206 201 198 207 196 214 217 221 212 222 223 229 234 232 228
125 121 110 109 122 116 123 123 138 162 123 214 276 158 121 140 174 270 126 85 96 186 175 166 195 216 204 195 186 189 193 191 192 193 197 196 199 200 201 201 206 208 204 201 200 200 196 199 203 207 210 207 211 209 208 214 210 211 218 222 219 204 213 227 226 225 226 236 234 220 222 224 233 230 225 212 219 206 209 208 208 210 210 202 198 205 191 207 222 224 214 233 253 245 245 237 231
140 138 136 134 143 135 170 152 152 246 122 215 317 228 216 183 227 174 119 121 133 154 173 173 191 202 198 194 187 187 194 186 190 200 203 200 199 198 201 198 200 203 206 202 198 197 202 198 204 205 208 205 209 213 209 212 215 212 214 223 221 209 205 219 229 224 223 232 235 235 228 228 225 235 219 222 217 223 219 216 214 213 214 208 198 197 193 201 217 220 212 218 231 239 243 239 229
155 187 153 154 174 187 154 117 153 226 100 201 216 246 228 200 189 111 125 160 151 204 215 186 186 192 197 197 197 197 189 188 196 203 202 202 201 200 200 194 198 199 197 198 198 199 198 200 200 204 205 209 204 214 215 214 217 214 208 219 226 219 218 213 220 228 227 229 224 226 226 228 227 231 242 221 222 226 224 220 222 217 216 213 199 185 196 207 220 215 222 212 227 230 233 232 229
181 150 180 192 177 189 141 169 145 202 129 201 233 254 303 128 126 108 133 161 188 205 207 190 188 183 188 192 203 203 198 202 203 202 204 203 202 199 197 195 193 196 192 194 199 200 197 196 196 206 196 210 202 210 211 217 219 218 212 213 220 224 224 223 217 218 224 225 228 222 224 232 234 232 232 240 232 235 228 225 219 223 217 203 198 200 207 216 216 221 217 227 230 230 242 242 236
172 162 201 201 210 124 132 128 173 221 150 214 214 250 260 119 128 112 122 173 190 227 192 191 193 194 191 193 201 204 206 204 211 208 203 204 204 200 195 198 193 194 196 195 195 198 200 194 193 203 197 209 208 211 214 215 219 223 223 216 218 219 224 227 228 219 218 222 221 226 221 228 238 235 238 236 243 239 235 232 227 223 211 191 199 207 218 224 215 220 224 222 235 238 241 243 236
199 209 179 193 206 154 152 167 146 347 146 190 217 268 242 120 113 136 130 144 170 207 225 223 216 208 204 206 203 206 204 204 204 209 206 200 202 202 196 199 196 196 197 196 194 194 200 196 192 199 201 203 212 212 216 218 219 222 225 221 221 218 220 224 230 234 223 215 191 215 214 217 220 232 241 242 242 242 239 236 239 236 213 202 208 215 218 228 228 216 224 219 227 243 241 245 245
195 209 234 190 196 174 198 110 195 156 233 196 210 244 254 86 136 143 161 166 156 193 214 219 213 213 210 209 209 207 209 206 208 204 203 200 198 199 198 196 199 196 200 202 198 195 198 197 195 199 201 201 206 213 210 212 222 225 225 225 221 221 217 226 227 224 225 213 197 210 213 206 205 215 228 235 241 237 234 230 233 217 206 214 218 219 225 225 228 220 223 220 222 234 245 246 244
176 184 193 159 265 250 207 172 149 187 202 238 204 232 250 249 155 159 170 181 194 225 238 236 227 218 216 213 216 217 216 215 217 207 195 195 195 195 199 197 198 201 202 202 202 199 198 200 199 197 203 203 204 208 214 215 218 224 227 230 230 228 223 220 227 233 229 226 220 214 200 206 210 225 232 235 238 227 225 229 230 217 213 219 222 223 224 222 222 221 225 230 226 230 239 247 253
187 186 198 187 190 193 212 83 116 219 188 213 224 230 241 239 241 222 183 181 216 247 248 248 245 245 239 226 221 222 219 226 187 106 110 148 180 188 193 196 199 203 204 203 204 203 204 202 202 202 199 201 203 207 207 213 216 219 224 225 232 234 235 229 223 225 228 229 226 226 223 215 219 216 226 231 230 242 245 232 219 220 216 215 216 220 219 212 210 217 226 230 234 230 228 240 229
195 192 199 198 190 169 84 92 65 310 254 224 225 240 253 258 245 236 233 163 201 231 242 237 236 239 238 233 226 220 215 224 107 130 155 172 171 175 184 190 198 200 205 205 202 204 205 202 199 204 196 195 199 203 206 208 210 215 221 226 229 230 230 231 230 227 226 227 225 219 211 214 211 213 214 217 223 218 223 224 223 225 215 217 223 223 217 219 218 219 225 219 228 231 225 222 227
189 182 194 193 200 181 87 112 115 47 276 211 216 259 261 259 256 251 244 218 224 230 231 231 230 229 230 224 228 224 220 131 137 194 193 182 188 183 177 189 194 197 202 203 204 204 204 205 205 201 196 194 199 201 202 208 211 216 219 221 227 233 226 222 234 234 226 220 223 227 223 225 218 221 217 211 217 222 232 232 235 238 232 212 212 224 231 229 232 224 214 225 212 224 238 208 204
189 197 193 205 182 90 133 98 102 119 173 245 121 260 262 257 253 240 232 222 229 235 253 253 272 257 246 245 249 249 237 232 196 205 180 187 174 178 183 191 197 207 199 202 204 201 202 204 207 203 198 197 197 198 204 207 210 218 223 226 222 231 239 251 245 239 234 233 229 228 233 227 212 216 205 207 216 218 223 225 229 211 185 196 222 231 233 234 226 222 215 220 229 218 234 229 208
184 192 191 210 142 177 188 156 148 132 251 334 3 291 275 268 257 246 126 166 227 317 262 254 243 243 244 252 283 292 279 269 245 222 197 181 176 183 190 192 194 195 201 196 196 199 197 202 202 201 200 197 195 196 203 215 219 220 221 237 237 241 250 251 251 258 252 234 231 229 234 236 230 233 225 211 215 221 223 225 225 218 218 193 209 224 230 230 220 220 214 213 221 243 207 227 208
196 201 193 169 153 160 352 142 146 117 194 284 287 275 265 243 239 216 134 134 187 208 214 220 196 218 258 269 259 240 264 278 272 232 197 189 184 186 184 182 175 185 196 192 187 190 194 195 194 195 197 195 193 187 189 204 221 220 220 220 238 248 250 249 239 239 238 244 257 258 255 243 239 236 229 219 218 224 228 234 236 235 235 230 218 223 228 224 211 210 207 215 218 228 233 228 216
170 242 304 152 166 119 108 121 139 187 207 174 265 267 257 216 212 224 139 172 179 153 205 198 175 182 201 229 230 237 229 224 246 249 248 217 198 142 152 166 183 197 192 190 189 192 185 181 183 182 187 191 193 185 181 187 200 209 207 212 215 222 230 228 232 243 246 241 240 236 245 255 259 252 248 242 225 208 227 223 226 233 234 234 232 234 253 270 249 230 218 218 226 226 241 229 243
185 178 136 103 149 135 136 152 180 190 236 129 276 232 261 134 210 195 164 188 179 148 200 185 177 192 183 200 210 227 285 155 151 185 185 170 148 150 139 139 155 168 142 129 151 176 173 169 171 171 175 178 181 178 178 180 194 206 213 216 221 226 231 238 244 248 255 259 260 256 262 262 257 265 272 272 270 237 215 223 226 229 231 228 221 227 234 234 238 231 224 209 213 205 205 240 241
203 22 170 139 152 147 160 166 209 57 82 102 220 254 266 278 199 140 152 189 200 198 183 185 160 165 163 135 141 95 112 80 84 104 111 100 98 98 112 112 131 116 133 157 160 165 165 154 151 159 160 160 161 172 174 180 190 199 205 212 219 224 230 242 240 240 248 257 267 282 279 273 280 277 277 282 282 279 280 276 266 250 238 238 227 211 212 217 227 228 218 218 222 221 219 223 237
60 44 273 162 174 163 162 183 182 36 267 211 171 156 255 244 212 121 158 210 211 212 197 171 151 118 112 114 93 110 86 78 56 109 91 85 89 85 95 101 100 107 119 135 136 142 147 145 145 150 148 151 152 171 171 178 189 188 195 201 210 225 233 244 262 270 305 319 302 291 274 280 280 275 268 271 268 275 279 274 270 265 259 256 243 240 246 245 239 237 227 227 226 226 220 219 223
183 184 95 82 82 110 165 177 166 170 213 240 162 176 236 267 205 170 180 239 221 206 180 163 132 119 104 99 92 90 92 82 67 74 78 82 82 87 86 98 94 91 101 110 110 115 124 134 139 143 136 143 142 152 168 170 178 186 188 196 207 208 217 241 266 276 289 317 284 282 286 283 279 276 277 279 288 280 275 277 275 274 273 270 271 271 260 239 228 226 226 223 220 220 218 227 232
141 167 113 105 102 112 76 74 189 183 238 224 84 239 302 284 225 196 174 198 228 172 157 139 131 128 120 99 105 101 97 93 88 82 83 84 87 94 102 95 97 97 97 99 103 105 104 107 111 106 97 99 125 140 155 157 166 180 189 196 201 216 224 241 248 249 252 257 258 266 265 272 274 276 282 284 279 279 279 281 280 278 282 285 275 273 272 268 258 248 243 240 236 232 235 233 235
154 147 138 121 106 138 171 169 215 228 239 85 342 80 277 220 230 203 71 49 22 165 173 162 156 151 138 133 117 97 96 101 104 101 100 104 100 96 97 94 94 96 95 94 97 107 112 114 119 120 121 122 123 128 143 145 157 168 187 190 202 215 223 231 246 265 275 286 289 286 288 285 275 277 280 281 276 275 278 278 280 281 279 282 284 282 281 276 274 256 243 241 242 236 235 232 233
214 155 160 164 158 168 188 181 200 219 241 88 67 267 238 239 248 72 193 140 118 205 163 157 153 146 140 133 119 104 92 99 98 96 98 96 91 94 91 90 88 78 80 88 93 98 108 118 122 116 116 123 124 132 133 134 141 146 152 171 202 339 345 272 265 262 280 278 278 281 287 286 290 274 261 270 275 272 272 273 268 275 285 282 283 286 285 286 282 279 273 252 236 239 234 229 233
189 180 176 186 174 180 210 194 216 210 67 269 99 25 260 308 259 256 199 151 131 111 113 135 142 142 137 132 125 117 94 84 85 82 78 78 79 75 78 81 79 81 83 83 85 89 93 98 101 104 106 112 120 126 130 132 135 136 141 144 156 169 188 208 222 234 241 260 271 282 278 285 292 292 298 293 301 313 304 301 299 286 278 283 290 291 292 293 298 293 294 289 284 269 247 242 241
197 205 194 204 190 179 193 189 189 205 122 112 241 180 233 183 175 27 37 120 109 95 96 85 102 115 115 113 114 120 110 90 82 83 77 80 72 74 76 76 77 80 86 83 84 91 95 99 103 104 103 103 110 115 121 123 120 127 132 138 156 161 171 180 192 196 242 260 290 286 284 290 288 300 303 311 324 320 313 306 299 296 293 287 285 283 284 282 275 274 273 276 278 282 286 271 256
159 302 16 280 227 1 229 37 346 122 150 145 168 235 307 297 103 107 106 113 108 112 111 135 126 128 129 138 142 133 123 109 98 96 88 73 72 75 75 73 70 71 74 74 78 81 86 90 95 95 97 97 96 97 95 97 100 96 94 100 96 80 80 72 100 81 25 357 333 319 313 303 312 315 310 314 317 311 307 304 300 295 296 292 287 285 283 283 285 282 281 280 278 280 279 278 279
177 147 207 173 14 103 107 123 89 6 334 248 139 241 249 228 184 140 148 142 134 136 149 154 152 150 159 154 142 134 123 116 111 104 97 94 78 66 66 69 72 69 64 62 60 65 78 88 91 90 87 83 80 81 85 87 95 95 86 84 80 78 71 56 48 38 17 7 346 332 325 328 316 312 319 324 314 311 307 307 303 300 299 298 298 296 294 290 289 286 282 285 285 286 285 284 282
99 216 180 138 270 359 175 225 127 230 231 227 135 210 233 161 242 146 152 171 158 170 170 170 163 164 172 158 152 139 129 111 101 92 85 85 78 75 68 59 60 68 73 72 64 54 55 62 75 83 79 76 72 73 70 71 77 76 72 69 65 61 59 57 47 34 27 21 11 4 358 346 350 340 322 317 319 319 319 315 310 310 308 306 304 303 299 296 293 287 286 285 288 290 288 287 283
298 169 97 177 183 212 191 246 204 204 221 241 193 214 253 234 201 159 179 184 181 180 177 176 171 180 175 162 152 135 123 129 128 125 116 101 91 79 71 75 69 66 64 64 64 67 69 64 64 71 74 70 71 69 72 64 61 60 59 58 57 55 50 48 42 33 34 29 23 14 4 352 345 346 338 337 330 331 330 330 322 316 314 314 312 309 309 302 299 294 293 291 291 292 288 284 285
56 183 192 38 342 236 178 200 288 206 236 214 210 133 241 198 229 175 186 194 186 177 178 185 179 181 173 164 159 156 161 156 145 135 124 114 101 90 85 87 78 68 65 62 64 65 65 66 70 75 76 73 69 64 65 65 55 57 57 59 52 53 51 49 42 36 40 32 28 15 6 1 354 338 342 335 334 334 334 332 331 322 317 316 313 311 311 306 301 295 295 292 292 295 291 286 286
167 181 178 191 214 6 341 228 216 220 235 227 240 225 231 202 198 193 193 193 189 180 179 179 178 179 171 165 162 167 165 156 150 142 135 126 115 106 95 86 79 72 62 59 58 57 59 62 66 64 73 71 69 65 66 63 62 59 56 54 49 45 48 49 51 44 45 37 31 21 15 352 336 349 346 341 339 344 338 335 330 325 323 319 317 314 312 307 299 294 293 292 295 293 287 285 285
198 189 192 191 164 167 185 214 88 16 224 238 215 242 304 89 10 241 217 196 191 182 172 174 173 173 166 163 168 167 161 157 155 150 142 136 127 115 107 97 91 83 78 76 72 71 66 65 63 66 64 67 75 69 71 73 70 67 63 60 55 49 45 47 58 52 44 39 29 23 5 349 351 350 346 339 345 342 340 334 328 323 318 317 313 313 314 311 304 302 295 295 291 290 289 286 287